Regional Weather Roundup
Issued by NWS Cleveland, OH

Home | Current Version | Previous Version | Graphics & Text | Print | Product List | Glossary On
Versions: 1 2 3 4 5 6 7 8 9 10 11 12 13 14 15 16 17 18 19 20 21 22 23 24 25 26 27 28 29 30 31 32 33 34 35 36 37 38 39 40 41 42 43 44 45 46 47 48 49 50
000
ASUS41 KCLE 251702
RWRCLE
OHIO REGIONAL WEATHER ROUNDUP
NATIONAL WEATHER SERVICE CLEVELAND, OH
1200 PM EST SAT FEB 25 2017

NOTE: "FAIR" INDICATES FEW OR NO CLOUDS BELOW 12,000 FEET WITH NO
SIGNIFICANT WEATHER AND/OR OBSTRUCTIONS TO VISIBILITY.

OHZ001>008-015>018-024>027-034-035-043-044-251800-
   NORTHWEST OHIO

CITY           SKY/WX    TMP DP  RH WIND       PRES   REMARKS
DEFIANCE       CLOUDY    30  23  75 W12G23    29.73R WCI  20
FINDLAY        CLOUDY    35  25  66 W26G33    29.70R WCI  22
TOLEDO EXPRESS FLURRIES  32  26  78 W18G30    29.68R WCI  20
TOLEDO EXEC    CLOUDY    37  25  61 SW28G36   29.68R
LIMA           CLOUDY    32  27  81 W28G37    29.74R WCI  18
$$

OHZ009>014-019>023-028>033-038-089-251800-
   NORTHEAST OHIO

CITY           SKY/WX    TMP DP  RH WIND       PRES   REMARKS
CLE-HOPKINS    CLOUDY    42  28  57 W24G31    29.65R
CLE-LAKEFRONT  CLOUDY    41  30  65 W28G35    29.62R
CUY CO. ARPT   CLOUDY    43  30  61 W20G33    29.61R
LORAIN-ELYRIA  CLOUDY    37  29  72 W18G26    29.66R
ASHTABULA      CLOUDY    45  32  60 W17G30    29.58R
AKRON-CANTON   CLOUDY    41  29  62 W21G35    29.63R
WOOSTER        CLOUDY    40  29  64 W20G26    29.66R
MANSFIELD      CLOUDY    34  28  79 W13G24    29.67R WCI  25
YOUNGSTOWN     PTSUNNY   46  31  55 W17G25    29.59R
$$

OHZ042-051>053-060>062-070>072-077>081-251800-
  SOUTHWEST OHIO

CITY           SKY/WX    TMP DP  RH WIND       PRES   REMARKS
CINC-COVINGTON CLOUDY    34  25  69 W15       29.86R WCI  24
CINC-LUNKEN    CLOUDY    36  27  69 W14       29.88R
HAMILTON       CLOUDY    35  26  69 W15G23    29.87R WCI  25
DAYTON         CLOUDY    32  24  72 W25G38    29.81R WCI  19
WRIGHT-PAT AFB CLOUDY    34  25  69 W23G30    29.80R WCI  22
DAYTON GENERAL LGT RAIN  32  25  75 W21G33    29.81R WCI  20
WILMINGTON     CLOUDY    34  26  72 W22G29    29.80R WCI  22
$$

OHZ036-037-039>041-045>050-054>059-063>069-073>076-082>088-251800-
  CENTRAL AND SOUTHEAST OHIO

CITY           SKY/WX    TMP DP  RH WIND       PRES   REMARKS
COLUMBUS       CLOUDY    40  26  57 W21G29    29.75R
OSU AIRPORT    LGT SNOW  34  30  85 W17G40    29.75R FOG     WCI  23
BOLTON FIELD   CLOUDY    36  28  75 W17G26    29.77R
RICKENBACK AFB NOT AVBL
NEWARK         CLOUDY    41  26  55 SW22G30   29.72R
MARION         LGT SNOW  32  27  81 W17G35    29.73R WCI  21
LANCASTER      CLOUDY    43  26  51 W25G37    29.76R
ZANESVILLE     CLOUDY    41  29  62 W25G33    29.72R
NEW PHILLY     NOT AVBL
$$



USA.gov is the U.S. government's official web portal to all federal, state and local government web resources and services.